When you browse on this site, cookies collect data to enhance your experience and personalize the content and advertising you see.
Visit our Privacy Policy to learn more. By continuing to use the site, you agree to this use of cookies and data.
  • Em Portugal
  • Lista de países
  • Para 7 dias
  • Temperatura da água
  • Mapas de satélite
  • Mapa do tempo
  • Widgets de tempo
  • user-avatar
    Iniciar Sessão

    Previsão horária em Giumri

    Hoje, 11 Dezembro, Terça-feira

    Tempo Temperatura Precipitação Vento Pressão Humidade
    00:00 -1°C° 0.1 mm 3 m/s 631 mmHg 87%
    01:00 -1°C° 0 mm 3 m/s 631 mmHg 87%
    02:00 -1°C° 0 mm 3 m/s 631 mmHg 87%
    03:00 -1°C° 0 mm 2 m/s 630 mmHg 88%
    04:00 -1°C° 0 mm 3 m/s 630 mmHg 88%
    05:00 -1°C° 0 mm 3 m/s 630 mmHg 88%
    06:00 -1°C° 0 mm 3 m/s 630 mmHg 88%
    07:00 0°C° 0 mm 3 m/s 630 mmHg 86%
    08:00 +1°C° 0 mm 3 m/s 630 mmHg 85%
    09:00 +1°C° 0 mm 3 m/s 630 mmHg 82%
    10:00 +1°C° 0.1 mm 4 m/s 630 mmHg 80%
    11:00 +3°C° 0.1 mm 4 m/s 629 mmHg 78%
    12:00 +3°C° 0.1 mm 5 m/s 629 mmHg 76%
    13:00 +3°C° 0.2 mm 5 m/s 629 mmHg 76%
    14:00 +3°C° 0.2 mm 5 m/s 629 mmHg 76%
    15:00 +3°C° 0 mm 5 m/s 629 mmHg 76%
    16:00 +2°C° 0.2 mm 5 m/s 629 mmHg 78%
    17:00 +1°C° 0.2 mm 4 m/s 629 mmHg 80%
    18:00 +1°C° 0.2 mm 4 m/s 629 mmHg 82%
    19:00 +1°C° 0.4 mm 4 m/s 629 mmHg 83%
    20:00 +1°C° 0.4 mm 4 m/s 629 mmHg 85%
    21:00 +1°C° 0.4 mm 4 m/s 630 mmHg 86%
    22:00 +2°C° 0.7 mm 3 m/s 630 mmHg 88%
    23:00 +2°C° 0.7 mm 3 m/s 630 mmHg 89%

    Amanhã, 12 Dezembro, Quarta-feira

    Tempo Temperatura Precipitação Vento Pressão Humidade
    00:00 +1°C° 0.7 mm 3 m/s 630 mmHg 91%
    01:00 +1°C° 0.7 mm 3 m/s 630 mmHg 91%
    02:00 +1°C° 0.7 mm 3 m/s 630 mmHg 92%
    03:00 +1°C° 0.7 mm 3 m/s 630 mmHg 93%
    04:00 +1°C° 0.4 mm 3 m/s 630 mmHg 93%
    05:00 +1°C° 0.4 mm 3 m/s 629 mmHg 93%
    06:00 +1°C° 0.4 mm 3 m/s 629 mmHg 94%
    07:00 +1°C° 0.5 mm 3 m/s 629 mmHg 93%
    08:00 0°C° 0.5 mm 4 m/s 628 mmHg 92%
    09:00 0°C° 0.5 mm 5 m/s 628 mmHg 91%
    10:00 +1°C° 1 mm 5 m/s 627 mmHg 90%
    11:00 +1°C° 1 mm 5 m/s 627 mmHg 89%
    12:00 +1°C° 1 mm 5 m/s 626 mmHg 89%
    13:00 +1°C° 1.8 mm 5 m/s 626 mmHg 90%
    14:00 +1°C° 1.8 mm 4 m/s 626 mmHg 91%
    15:00 +1°C° 1.8 mm 4 m/s 625 mmHg 93%
    16:00 +1°C° 1.2 mm 4 m/s 626 mmHg 93%
    17:00 +1°C° 1.2 mm 4 m/s 626 mmHg 93%
    18:00 +1°C° 1.2 mm 4 m/s 626 mmHg 93%
    19:00 +1°C° 1.1 mm 4 m/s 626 mmHg 94%
    20:00 +1°C° 1.1 mm 5 m/s 626 mmHg 94%
    21:00 +1°C° 1.1 mm 5 m/s 626 mmHg 94%
    22:00 +1°C° 0.6 mm 4 m/s 627 mmHg 94%
    23:00 0°C° 0.6 mm 4 m/s 627 mmHg 94%

    Depois de amanhã, 13 Dezembro, Quinta-feira

    Tempo Temperatura Precipitação Vento Pressão Humidade
    00:00 +1°C° 0.6 mm 3 m/s 627 mmHg 94%
    01:00 +1°C° 0.3 mm 3 m/s 627 mmHg 94%
    02:00 0°C° 0.3 mm 3 m/s 627 mmHg 94%
    03:00 0°C° 0.3 mm 3 m/s 627 mmHg 94%
    04:00 -1°C° 0.1 mm 3 m/s 627 mmHg 94%
    05:00 -1°C° 0.1 mm 3 m/s 627 mmHg 93%
    06:00 -2°C° 0.1 mm 2 m/s 627 mmHg 93%
    07:00 -2°C° 0.2 mm 2 m/s 628 mmHg 92%
    08:00 -1°C° 0.2 mm 2 m/s 628 mmHg 92%
    09:00 -1°C° 0.2 mm 2 m/s 629 mmHg 91%
    10:00 -1°C° 0.3 mm 2 m/s 629 mmHg 90%
    11:00 0°C° 0.3 mm 3 m/s 629 mmHg 88%
    12:00 -1°C° 0.3 mm 4 m/s 629 mmHg 87%
    13:00 0°C° 0.2 mm 3 m/s 630 mmHg 86%
    14:00 0°C° 0.2 mm 3 m/s 630 mmHg 85%
    15:00 0°C° 0.2 mm 3 m/s 630 mmHg 84%
    16:00 -1°C° 0 mm 3 m/s 631 mmHg 85%
    17:00 -3°C° 0 mm 2 m/s 631 mmHg 86%
    18:00 -4°C° 0 mm 2 m/s 631 mmHg 87%
    19:00 -5°C° 0 mm 2 m/s 632 mmHg 87%
    20:00 -5°C° 0 mm 2 m/s 632 mmHg 87%
    21:00 -6°C° 0 mm 2 m/s 632 mmHg 87%
    22:00 -6°C° 0 mm 2 m/s 632 mmHg 87%
    23:00 -7°C° 0 mm 2 m/s 633 mmHg 87%

    14 Dezembro, Sexta-feira

    Tempo Temperatura Precipitação Vento Pressão Humidade
    00:00 -7°C° 0 mm 2 m/s 633 mmHg 87%
    01:00 -8°C° 0 mm 2 m/s 633 mmHg 87%
    02:00 -7°C° 0 mm 1 m/s 633 mmHg 86%
    03:00 -7°C° 0 mm 1 m/s 633 mmHg 86%
    04:00 -8°C° 0 mm 1 m/s 633 mmHg 85%
    05:00 -8°C° 0 mm 1 m/s 633 mmHg 84%
    06:00 -8°C° 0 mm 1 m/s 633 mmHg 84%
    07:00 -7°C° 0 mm 1 m/s 634 mmHg 83%
    08:00 -7°C° 0 mm 1 m/s 634 mmHg 83%
    09:00 -6°C° 0 mm 1 m/s 634 mmHg 82%
    10:00 -4°C° 0 mm 1 m/s 634 mmHg 81%
    11:00 -2°C° 0 mm 1 m/s 634 mmHg 80%
    12:00 -3°C° 0 mm 2 m/s 634 mmHg 78%
    13:00 -1°C° 0.1 mm 1 m/s 634 mmHg 80%
    14:00 -1°C° 0.1 mm 1 m/s 634 mmHg 82%
    15:00 0°C° 0.1 mm 1 m/s 634 mmHg 84%
    16:00 -1°C° 0.3 mm 1 m/s 634 mmHg 86%
    17:00 -1°C° 0.3 mm 1 m/s 634 mmHg 89%
    18:00 -2°C° 0.3 mm 1 m/s 634 mmHg 91%
    19:00 -3°C° 0.4 mm 0 m/s 634 mmHg 91%
    20:00 -3°C° 0.4 mm 0 m/s 635 mmHg 92%
    21:00 -3°C° 0.4 mm 0 m/s 635 mmHg 92%
    22:00 -2°C° 0.3 mm 1 m/s 635 mmHg 91%
    23:00 -2°C° 0.3 mm 1 m/s 635 mmHg 91%

    15 Dezembro, Sábado

    Tempo Temperatura Precipitação Vento Pressão Humidade
    00:00 -2°C° 0.3 mm 1 m/s 635 mmHg 90%
    01:00 -3°C° 0.1 mm 1 m/s 635 mmHg 89%
    02:00 -4°C° 0.1 mm 1 m/s 635 mmHg 88%
    03:00 -4°C° 0.1 mm 1 m/s 635 mmHg 86%
    04:00 -6°C° 0.1 mm 1 m/s 635 mmHg 85%
    05:00 -6°C° 0.1 mm 1 m/s 635 mmHg 84%
    06:00 -6°C° 0.1 mm 1 m/s 636 mmHg 83%
    07:00 -6°C° 0 mm 1 m/s 636 mmHg 83%
    08:00 -4°C° 0 mm 1 m/s 636 mmHg 83%
    09:00 -4°C° 0 mm 1 m/s 637 mmHg 82%
    10:00 -3°C° 0 mm 1 m/s 637 mmHg 82%
    11:00 -2°C° 0 mm 1 m/s 637 mmHg 81%
    12:00 -1°C° 0 mm 1 m/s 637 mmHg 80%
    13:00 -1°C° 0 mm 1 m/s 637 mmHg 81%
    14:00 -1°C° 0 mm 1 m/s 636 mmHg 82%
    15:00 -1°C° 0 mm 1 m/s 636 mmHg 82%
    16:00 -2°C° 0 mm 1 m/s 636 mmHg 82%
    17:00 -4°C° 0 mm 1 m/s 636 mmHg 82%
    18:00 -6°C° 0 mm 1 m/s 636 mmHg 82%
    19:00 -6°C° 0 mm 1 m/s 636 mmHg 81%
    20:00 -6°C° 0 mm 1 m/s 637 mmHg 79%
    21:00 -6°C° 0 mm 1 m/s 637 mmHg 77%
    22:00 -6°C° 0 mm 1 m/s 637 mmHg 76%
    23:00 -6°C° 0 mm 1 m/s 637 mmHg 75%

    16 Dezembro, Domingo

    Tempo Temperatura Precipitação Vento Pressão Humidade
    00:00 -6°C° 0 mm 1 m/s 637 mmHg 75%
    01:00 -6°C° 0 mm 1 m/s 637 mmHg 74%
    02:00 -4°C° 0 mm 1 m/s 637 mmHg 74%
    03:00 -4°C° 0 mm 1 m/s 637 mmHg 73%
    04:00 -4°C° 0 mm 1 m/s 637 mmHg 73%
    05:00 -4°C° 0 mm 1 m/s 636 mmHg 73%
    06:00 -4°C° 0 mm 1 m/s 636 mmHg 72%
    07:00 -4°C° 0 mm 1 m/s 637 mmHg 72%
    08:00 -3°C° 0 mm 1 m/s 637 mmHg 72%
    09:00 -3°C° 0 mm 1 m/s 637 mmHg 72%
    10:00 -1°C° 0 mm 1 m/s 637 mmHg 72%
    11:00 0°C° 0 mm 1 m/s 637 mmHg 72%
    12:00 +1°C° 0 mm 1 m/s 637 mmHg 73%
    13:00 +1°C° 0 mm 1 m/s 637 mmHg 73%
    14:00 +1°C° 0 mm 1 m/s 636 mmHg 73%
    15:00 +1°C° 0 mm 1 m/s 636 mmHg 73%
    16:00 +1°C° 0 mm 1 m/s 636 mmHg 72%
    17:00 0°C° 0 mm 1 m/s 636 mmHg 72%
    18:00 -1°C° 0 mm 1 m/s 636 mmHg 71%
    19:00 -1°C° 0 mm 1 m/s 636 mmHg 71%
    20:00 -1°C° 0 mm 1 m/s 636 mmHg 70%
    21:00 -1°C° 0 mm 1 m/s 636 mmHg 70%
    22:00 -1°C° 0 mm 1 m/s 636 mmHg 70%
    23:00 -1°C° 0 mm 1 m/s 636 mmHg 70%
    Mostrar mais